Regional Weather Roundup
Issued by NWS Upton, NY

Home | Current Version | Previous Version | Text Only | Print | Product List | Glossary On
Versions: 1 2 3 4 5 6 7 8 9 10 11 12 13 14 15 16 17 18 19 20 21 22 23 24 25 26 27 28 29 30 31 32 33 34 35 36 37 38 39 40 41 42 43 44 45 46 47 48 49 50
801
ASUS41 KOKX 022308
RWROKX

REGIONAL WEATHER ROUNDUP
NATIONAL WEATHER SERVICE NEW YORK NY
600 PM EST FRI DEC 02 2016

NOTE: "FAIR" INDICATES FEW OR NO CLOUDS BELOW 12,000 FEET WITH NO
SIGNIFICANT WEATHER AND/OR OBSTRUCTIONS TO VISIBILITY.

NYZ071-072-176-178-NJZ106-104-030000-
NEW YORK CITY METRO AREA

CITY           SKY/WX    TMP DP  RH WIND       PRES   REMARKS
Central Park   CLEAR     48  26  42 W10G20    29.90S
Wall St Helipt CLEAR     48  30  49 W13G22    29.89F
Bronx Bot Gard NOT AVBL
LaGuardia APRT PTCLDY    50  27  40 W16G22    29.88S
Kennedy INTL   PTCLDY    49  26  41 W22G29    29.89S
Breezy Point     N/A     46 N/A N/A W14G22      N/A
Newark/Liberty PTCLDY    48  27  44 W17G31    29.89S
Teterboro      CLEAR     48  26  42 W8        29.88R
$$

NYZ177-179-078>081-030000-
LONG ISLAND NEW YORK

CITY           SKY/WX    TMP DP  RH WIND       PRES   REMARKS
Jones Beach      N/A     48 N/A N/A W14G21      N/A
Matinecock PT    N/A     50 N/A N/A W24         N/A
Farmingdale    MOCLDY    49  27  42 W12       29.87R
MacArthur/ISP  PTCLDY    47  28  47 W15       29.85S
Shirley        CLOUDY    47  29  49 W9        29.86S
Westhampton    MOCLDY    45  29  53 W7        29.86S
Southampton    NOT AVBL
Bridgehampton  NOT AVBL
East Hampton   CLOUDY    47  32  55 W5        29.83S
Montauk          N/A     49  32  52 W10G22    29.83S
$$

NYZ052-065-067-030000-
HUDSON VALLEY

CITY           SKY/WX    TMP DP  RH WIND       PRES   REMARKS
White Plains   MOCLDY    46  27  47 VRB6      29.85S
Newburgh       PTCLDY    41  36  81 W12       29.87R
Montgomery     CLOUDY    43  33  68 W6        29.86R
Poughkeepsie   CLOUDY    43  29  57 W14       29.86S
Albany         MOCLDY    43  29  57 W9        29.81R
$$

NJZ001-105-106-008-010-013-015-019>022-104-030000-
NEW JERSEY

CITY           SKY/WX    TMP DP  RH WIND       PRES   REMARKS
Newark/Liberty PTCLDY    48  27  44 W17G31    29.89S
Teterboro      CLEAR     48  26  42 W8        29.88R
Caldwell       CLEAR     47  27  45 W9        29.89S
Somerville     CLOUDY    47  27  45 W10       29.90S
Linden         CLOUDY    47  27  44 W13G22    29.91S
Sussex         CLOUDY    45  29  53 SW8       29.88R
Andover          N/A     44  27  51 VRB6      29.89R
Trenton        CLOUDY    46  26  45 W17G25    29.94R
Millville      CLEAR     44  29  55 W16G25    30.01R
Atlantic City  CLEAR     45  27  49 W9        29.98R
Wrightstown    PTCLDY    45  28  50 W14       29.93R
Toms River     PTCLDY    45  29  53 W14       29.95R
Belmar         MOCLDY   N/A N/A N/A W13       29.93R
$$

PAZ047>061-062-071-030000-
EASTERN PENNSYLVANIA

CITY           SKY/WX    TMP DP  RH WIND       PRES   REMARKS
Philadelphia   MOCLDY    45  27  49 W21G28    29.99R
Allentown      CLOUDY    45  27  49 W14G25    29.94R
Scranton       CLOUDY    42  30  62 W13       29.90R
$$

CTZ002-004>006-009-010-012-RIZ004-006-007-MAZ004-011-015-030000-
SOUTHERN NEW ENGLAND
 IN CT

CITY           SKY/WX    TMP DP  RH WIND       PRES   REMARKS
Bradley INTL   MOCLDY    44  28  53 NW10      29.81R
Hartford       CLOUDY    47  30  51 W14G23    29.82R
Danbury        LGT RAIN  45  29  53 W20G29    29.86R
Wtrbury/Oxford MOCLDY    45  27  49 W7        29.83S
Bridgeport     MOCLDY    49  29  46 W13G21    29.84S
Meriden        CLOUDY    48  29  47 NW6       29.83S
New Haven      MOCLDY    48  32  53 W6        29.83S
Chester        MOCLDY    45  30  57 CALM      29.82S
Groton         CLOUDY    51  31  46 W15       29.81S
Wilimantic     CLOUDY    47  29  49 W3        29.80S

 IN RI

CITY           SKY/WX    TMP DP  RH WIND       PRES   REMARKS
Providence     MOCLDY    48  28  46 W9        29.79S
Block Island   CLOUDY    49  32  52 W12G18    29.81S
Westerly       CLOUDY    49  28  44 VRB5      29.81S
 IN MA

CITY           SKY/WX    TMP DP  RH WIND       PRES   REMARKS
Boston         PTCLDY    47  29  49 W16G22    29.75S
Worcester      CLEAR     39  25  57 W13       29.74S WCI  31
Westfield      PTCLDY    44  29  55 W10       29.80R
Provincetown   CLEAR     47  33  58 W17G23    29.75S
Nantucket      CLEAR     45  32  60 W9        29.79R
$$

ANZ330-335-338-340-345-350-353-355-030000-
COASTAL MARINE OBSERVATIONS


STATION/POSITION TIME  SKY/WX   TEMP    WIND        PRES    VSBY  WAVE
                                AIR SEA DIR/SP/G                  HT/PER
                 (UTC)          (F)     (DEG/KT/KT) (MB)    (MI)  (FT/S)
NY HARB ENTRANCE 2250            50 54  280/ 21/ 25 1011.8          4/ 4
20 S FIRE ISLAND 2150            51 55  280/ 21/ 25 1011.3          5/ 5
GREAT SOUTH BAY  NOT AVBL
23 SSW MONTAUK P 2250            51 56  270/ 19/ 21 1010.5          5/ 6
15 E BARNEGAT LI NOT AVBL
HUDSON CANYON    2150            51 59              1012.1          7/ 6
KINGS POINT      NOT AVBL
EXECUTION ROCKS  NOT AVBL
CENTRAL LI SOUND NOT AVBL
EASTERN LI SOUND NOT AVBL
ROBBINS REEF     NOT AVBL
$$


>>>>>>>>>>>>>>>>>>>>>>>>>>>> KEY <<<<<<<<<<<<<<<<<<<<<<<<<<<
>                                                          <
>     SKY/WX - Sky Condition/Present Weather               <
>     TMP    - Temperature in Fahrenheit                   <
>     DP     - Dew Point in Fahrenheit                     <
>     RH     - Relative Humidity in Percent                <
>     WIND   - Direction (from) and Speed in MPH           <
>     PRES   - Mean Sea Level Pressure (inches of Hg)      <
>     WCI    - Wind Chill Index                            <
>     VSB    - VISIBILITY IN MILES                         <
>     HX     - HEAT INDEX                                  <
>     TC     - TEMPERATURE IN CELSIUS                      <
>     VRB    - VARIABLE WIND DIRECTION                     <
>                                                          <
>>>>>>>>>>>>>>>>>>>>>>>>>>>> KEY <<<<<<<<<<<<<<<<<<<<<<<<<<<




USA.gov is the U.S. government's official web portal to all federal, state and local government web resources and services.